GFSGBSN_con_lsi_021.txt.gz
Lid_Strength_Index
4 5 5 5 5 5 5 5 5 4 5 4 4 4 4 3 3 3 3 3 4 3 3 3 3 3 5 7 7 2 -1 -0 3 3 4 6 7 6 6 6 5 5 5 4 4 4 4
5 5 5 5 5 5 5 4 4 4 4 4 4 4 4 3 3 3 3 3 3 3 3 3 3 3 5 10 4 4 4 3 3 3 2 5 6 4 5 5 6 5 5 5 4 4 4
5 4 4 5 5 5 5 5 5 5 4 4 4 4 4 4 4 4 3 3 3 3 3 3 3 3 6 8 4 3 3 4 4 3 5 2 3 5 5 5 4 5 6 5 5 4 5
5 5 5 5 5 5 5 4 4 4 4 4 4 3 3 3 3 3 3 3 3 3 3 3 3 4 8 4 4 5 4 5 4 4 4 3 2 4 5 4 5 6 6 9 6 5 4
5 5 5 5 4 4 4 4 4 4 3 3 3 3 3 3 3 3 3 3 3 3 3 3 4 5 9 3 5 4 4 6 5 4 4 4 5 6 5 7 8 7 10 9 8 5 5
5 5 5 5 4 4 4 4 4 4 4 4 3 3 3 4 4 3 3 4 3 4 3 3 4 7 6 9 7 5 4 4 5 5 5 6 6 8 8 8 12 10 9 8 9 6 6
5 5 5 5 5 5 4 4 4 4 4 3 4 4 4 4 4 4 4 4 6 6 5 7 8 8 8 6 6 7 6 6 5 6 9 6 9 10 9 8 8 8 8 8 7 6 6
5 5 5 5 5 5 5 4 4 4 4 4 4 4 4 4 4 4 4 7 7 6 10 7 7 7 7 6 9 8 6 9 8 9 8 8 10 8 7 7 7 8 9 9 7 6 7
5 5 5 5 5 5 4 4 4 4 4 4 4 4 4 4 4 4 4 4 3 3 10 8 6 7 7 6 8 8 7 8 10 9 8 9 9 6 7 8 8 8 9 8 8 7 6
4 4 4 4 4 4 4 4 4 4 4 4 4 3 3 2 3 1 3 1 0 0 10 9 7 6 5 4 7 5 5 7 9 11 8 8 7 7 8 8 8 9 6 7 8 9 11
4 4 4 4 4 4 4 4 4 4 4 4 3 2 1 1 1 2 0 -1 -1 1 15 7 6 2 3 5 5 5 3 5 9 9 9 11 9 9 8 9 7 9 6 7 7 9 9
4 4 5 5 4 4 4 4 4 4 3 3 1 -0 -0 -1 -0 -0 -1 -1 1 11 15 9 6 6 6 5 5 4 4 3 4 7 8 9 6 6 8 6 6 6 7 7 7 8 12
5 5 5 5 5 5 4 4 4 3 3 1 -1 -1 -1 -1 2 -2 -1 2 12 15 8 9 9 7 7 7 7 6 7 7 9 11 10 10 8 6 6 7 6 6 8 12 13 13 14
5 5 5 5 5 5 4 4 4 3 2 -0 -1 -1 0 -1 -1 -1 1 8 15 10 9 6 7 7 9 7 7 7 7 9 7 8 11 11 12 9 7 8 8 8 8 11 16 14 12
5 5 5 5 5 4 3 4 3 2 1 -1 -0 -1 0 -1 -2 -0 6 13 11 9 7 8 7 10 9 8 7 8 8 9 8 8 15 13 11 7 6 6 6 8 10 7 10 9 11
5 5 5 5 5 4 2 3 2 1 -0 -1 1 1 1 -2 -2 1 7 10 8 6 6 7 11 9 11 9 9 9 9 9 9 7 7 11 12 7 6 6 6 7 6 10 10 14 15
5 5 5 5 4 3 2 2 2 1 0 -0 1 4 1 -2 -1 4 10 8 7 5 5 8 9 10 9 10 9 9 10 9 8 7 7 8 12 10 7 8 9 8 9 8 8 10 13
5 5 5 4 3 3 2 2 1 1 1 -0 2 6 -0 -2 7 7 9 7 6 6 5 6 7 8 9 9 10 10 10 9 6 7 10 7 11 13 9 6 6 6 8 8 11 12 10
5 5 5 4 3 2 2 2 1 1 1 1 4 3 0 0 10 9 6 6 6 6 6 7 7 7 7 9 11 8 8 7 7 8 11 9 11 14 14 9 7 8 7 7 8 8 10
5 5 5 4 2 2 2 2 1 1 1 1 3 6 3 2 4 7 8 8 8 5 6 6 7 6 8 9 7 10 9 8 7 7 7 8 11 12 18 12 8 9 8 8 8 11 10
5 5 5 4 3 2 2 2 1 1 1 1 2 5 5 8 7 7 7 8 9 10 7 6 7 7 8 10 9 10 9 8 8 7 8 10 12 10 11 11 10 8 8 8 9 8 10
5 5 5 5 3 2 2 1 1 1 1 1 5 6 4 6 6 8 7 9 8 8 8 8 9 7 7 9 8 10 9 8 10 9 10 8 13 9 13 11 10 9 8 8 8 8 8
4 5 5 5 5 3 2 1 1 1 1 2 2 3 5 7 7 9 8 8 8 7 7 6 7 8 8 7 5 5 5 5 6 8 9 10 11 13 17 11 11 11 9 8 8 7 7
3 5 5 5 5 4 3 1 1 1 1 1 2 3 6 9 7 8 7 7 7 7 9 6 6 7 5 3 4 4 5 5 6 7 7 10 11 12 15 13 17 9 6 6 7 7 6
4 4 5 5 5 5 4 2 1 1 1 2 0 3 6 9 7 7 7 7 6 6 7 6 5 4 3 5 9 10 9 8 7 7 7 7 10 14 17 16 11 10 7 8 8 8 6
4 4 4 3 4 5 5 4 2 1 0 1 1 1 4 8 7 5 7 7 8 8 7 6 3 3 4 8 10 13 15 11 14 11 7 7 8 13 14 17 20 14 7 6 6 12 6
3 4 4 4 4 4 5 4 4 2 1 1 1 -1 4 8 5 6 7 8 6 7 9 7 6 6 4 10 14 14 13 11 15 15 12 12 12 14 14 14 14 9 6 6 12 13 6
3 3 3 3 4 4 5 5 4 3 1 1 1 -1 3 6 5 4 4 5 6 7 10 6 7 6 8 11 13 13 13 12 14 13 14 14 15 13 12 16 19 7 7 10 8 6 5
3 3 3 3 4 4 5 5 4 4 2 1 2 -0 0 5 5 2 2 1 2 3 6 7 7 7 8 11 10 11 13 12 13 16 10 15 12 14 13 14 9 7 7 5 5 5 5

GFSGBSN_con_lsi_024.txt.gz
Lid_Strength_Index
4 4 4 4 4 4 4 4 4 4 4 4 4 4 4 4 3 3 3 3 3 3 3 3 3 4 5 8 8 3 -2 -1 2 4 6 7 8 7 8 6 5 7 6 5 4 4 4
4 4 4 4 4 4 4 4 4 4 4 4 4 4 3 3 3 3 3 3 3 3 3 3 3 3 6 11 5 4 4 3 3 4 3 4 6 6 7 6 6 5 6 5 5 5 4
5 5 4 4 4 4 4 4 4 4 4 4 4 4 4 4 3 3 3 3 3 3 3 3 3 4 7 9 5 4 4 5 4 4 5 3 2 5 6 7 5 5 7 6 5 5 5
4 4 4 4 4 5 5 4 4 4 4 4 3 3 3 4 3 3 3 3 3 3 3 3 3 4 9 5 4 5 4 5 5 4 5 4 3 4 5 5 6 7 7 9 6 5 5
4 4 4 4 4 4 4 4 4 4 4 3 3 3 4 4 4 3 3 3 3 3 3 2 4 6 9 3 6 4 4 7 6 5 5 4 5 6 5 7 8 7 10 10 8 5 6
4 4 4 4 4 4 4 4 4 4 4 4 4 4 4 4 4 3 4 4 3 3 3 3 4 7 6 7 6 5 4 5 7 6 7 6 7 9 9 9 12 10 10 9 9 7 6
4 4 4 4 4 4 4 4 4 4 4 3 4 4 4 4 4 4 5 4 7 7 5 7 6 7 7 5 5 7 6 6 6 7 10 8 9 11 10 9 8 8 8 9 8 6 7
4 4 4 4 4 4 4 4 4 4 4 3 3 3 3 3 3 4 5 6 7 6 10 7 7 7 7 6 9 8 6 9 9 10 8 9 10 8 8 8 9 9 9 9 7 6 7
3 3 4 4 4 4 4 4 4 3 3 3 4 4 4 4 3 3 4 4 2 3 9 8 6 8 7 6 9 8 7 8 10 11 9 10 10 7 8 9 9 9 9 9 9 7 7
4 4 4 4 4 4 4 4 4 4 4 4 4 4 3 3 3 1 2 -0 -1 -0 10 8 7 6 5 5 8 4 4 7 9 11 10 10 8 9 8 9 8 10 8 8 8 9 12
4 4 4 4 4 4 4 5 4 4 4 4 3 2 2 -0 1 2 1 -1 -1 1 18 7 6 2 3 5 5 5 3 5 9 9 9 13 10 9 10 9 7 9 7 8 8 9 9
5 5 5 4 4 4 5 5 4 4 3 3 2 1 -1 -0 0 -0 -1 -1 1 12 18 9 6 8 7 6 6 5 4 3 4 7 8 11 8 8 9 7 7 6 8 8 8 9 13
4 4 5 5 5 5 5 4 4 3 3 2 1 -0 0 -1 2 -1 -1 3 12 17 7 10 8 7 8 8 7 6 7 8 9 13 11 10 9 9 8 9 7 7 9 13 14 13 14
4 5 4 4 4 4 4 4 3 3 2 1 0 0 -1 -1 -1 -1 1 7 17 11 10 6 7 7 9 7 7 7 8 9 7 8 10 14 15 10 9 10 9 8 9 12 16 15 13
5 4 4 4 5 4 3 3 2 2 2 1 1 -0 0 -1 -1 -1 5 13 13 9 7 8 8 10 10 8 9 8 9 9 8 8 12 13 12 7 7 7 7 9 11 8 11 10 12
4 4 4 4 4 4 3 2 2 2 1 2 1 2 1 -1 -2 2 8 11 8 6 6 7 10 10 13 10 11 10 10 8 8 7 6 9 14 9 7 6 7 8 7 11 10 15 16
4 4 4 4 4 3 2 2 2 1 2 2 1 4 1 -2 -0 5 11 9 7 5 5 7 9 11 9 10 10 10 10 8 7 7 6 7 10 11 8 9 10 9 10 9 9 10 14
4 4 4 4 4 3 2 2 2 2 2 2 2 7 0 -1 7 7 9 7 6 6 5 6 6 8 9 9 10 10 10 10 7 6 10 8 10 14 12 8 6 7 9 9 12 13 11
3 4 4 4 4 4 3 2 2 2 2 2 5 4 0 1 10 9 7 6 6 7 7 7 8 7 7 9 13 9 10 7 7 8 10 9 12 16 14 10 8 9 8 8 8 9 12
3 4 4 4 4 4 4 2 1 2 2 2 4 7 4 3 4 7 8 8 8 6 7 6 7 6 8 10 8 10 11 8 6 7 6 8 12 13 16 15 12 12 9 8 9 12 11
3 3 4 4 4 4 4 3 2 1 1 2 4 5 4 8 7 7 7 8 9 9 6 6 8 7 8 10 9 9 8 8 7 7 7 10 15 12 11 12 12 13 11 9 9 9 11
3 3 3 3 3 4 4 4 3 2 1 2 5 6 4 7 6 7 7 8 9 8 8 8 9 8 7 9 9 10 8 8 9 8 9 9 14 12 13 11 12 14 11 9 8 8 8
3 3 3 3 3 3 3 4 4 3 1 3 2 2 5 7 7 8 9 8 8 7 7 6 7 8 8 7 6 5 5 6 6 8 9 9 11 14 15 11 13 15 11 9 8 7 8
3 3 3 3 3 3 3 4 4 3 2 3 3 3 6 9 8 8 7 8 8 7 8 6 6 8 6 3 4 5 5 6 6 7 7 9 10 13 16 15 20 10 7 7 8 7 7
4 3 3 3 3 3 3 4 4 4 3 2 2 3 5 9 7 7 7 7 7 6 7 7 5 4 3 5 9 10 10 9 8 7 7 7 9 14 17 17 14 11 11 10 10 10 8
4 4 3 3 3 3 3 4 4 4 3 3 2 1 4 8 7 6 7 7 9 8 8 6 4 3 5 8 10 14 16 14 13 10 6 7 8 13 15 19 21 13 9 7 7 13 7
4 4 4 3 3 3 3 4 4 4 4 4 2 -1 3 7 5 5 7 8 6 7 9 7 7 6 5 10 14 14 15 12 16 16 13 11 12 15 15 17 15 10 8 6 15 14 7
5 5 4 4 3 2 2 4 4 4 4 4 3 0 2 6 5 4 3 6 6 6 10 7 8 8 9 12 12 13 13 12 14 13 14 15 15 15 14 16 19 9 8 12 10 7 6
5 5 4 4 4 3 2 3 4 4 4 4 6 1 -0 4 5 2 2 1 2 3 6 6 8 7 8 10 10 11 13 12 13 16 10 15 12 14 14 14 9 8 8 7 6 6 5

GFSGBSN_con_lsi_030.txt.gz
Lid_Strength_Index
4 4 4 3 4 4 4 4 4 4 4 4 4 4 4 4 4 4 4 3 3 3 3 3 3 3 6 10 10 7 1 4 7 2 6 8 10 11 13 12 10 10 7 6 6 6 6
4 4 4 4 4 4 4 4 4 3 3 3 3 3 3 3 4 4 3 4 4 4 4 4 3 4 8 13 7 6 6 6 7 8 5 7 9 9 11 12 12 10 10 8 7 7 7
4 4 4 4 4 4 3 3 3 3 3 3 3 3 3 3 3 3 3 3 3 3 4 4 3 5 8 10 6 7 7 9 7 7 8 6 6 7 10 12 10 10 12 10 9 8 8
3 4 4 4 3 3 3 3 3 4 4 4 4 3 3 3 3 3 3 3 3 3 2 3 3 5 11 6 6 6 6 7 6 7 7 7 7 9 9 8 9 10 11 12 9 8 8
4 4 4 4 3 3 3 4 4 4 4 4 4 3 3 3 3 3 3 3 3 2 2 2 5 7 11 4 7 6 6 8 7 7 8 6 9 10 10 12 13 12 13 12 11 7 8
4 4 4 4 4 4 4 4 4 4 4 4 3 3 3 3 3 3 3 3 3 3 4 4 4 8 7 8 5 5 5 6 8 8 9 10 12 13 14 14 16 14 13 11 12 9 7
4 4 4 4 4 4 4 4 4 4 4 4 4 4 4 3 3 3 5 7 10 11 9 11 10 9 8 6 6 7 5 7 7 10 14 12 15 16 14 12 12 11 12 12 10 8 9
4 4 4 4 4 4 4 4 4 4 4 4 4 4 4 3 3 3 6 9 9 9 12 6 7 7 6 6 10 8 7 10 11 14 12 14 16 13 11 11 12 12 13 13 11 9 9
4 4 4 4 4 4 4 3 4 4 4 4 4 4 3 3 3 5 7 7 4 4 9 6 4 4 4 5 8 8 6 9 11 13 13 15 13 10 12 12 12 12 13 13 12 10 10
4 4 4 4 3 3 3 4 4 4 4 4 4 3 3 3 5 5 5 3 3 4 12 9 7 5 4 5 7 4 5 7 10 13 12 14 12 12 12 13 12 14 11 11 11 12 16
4 4 4 3 3 3 3 4 4 4 4 4 4 3 2 2 6 6 3 3 3 5 19 7 6 2 4 6 6 5 2 5 9 10 11 14 13 13 13 12 10 13 10 10 11 13 13
4 4 4 3 4 4 3 3 4 4 4 4 3 2 2 4 5 4 2 3 4 13 19 10 6 7 7 6 6 5 5 4 5 8 10 11 9 11 12 11 11 11 11 11 11 13 17
5 5 4 4 3 3 3 4 4 4 4 3 3 2 3 3 6 3 4 6 14 17 8 10 9 8 8 8 8 7 8 9 12 15 13 9 9 8 8 12 11 13 16 18 19 18 18
5 5 4 3 3 3 3 3 3 4 4 3 3 3 3 2 4 3 5 11 19 11 11 8 9 8 10 9 9 9 9 11 8 10 12 14 15 9 7 10 14 14 15 18 21 20 17
5 5 4 4 3 3 3 3 3 4 4 4 3 6 5 3 3 4 9 16 14 11 9 10 10 11 11 9 9 9 10 11 9 9 14 14 14 8 7 8 10 13 16 14 16 14 17
5 5 4 3 3 3 3 3 3 3 4 4 7 7 5 2 3 6 11 12 11 7 7 8 13 11 13 11 11 11 11 9 10 8 8 11 15 9 9 8 9 11 10 16 16 19 21
5 5 4 3 3 3 3 3 3 3 4 5 9 8 4 3 4 8 15 12 9 6 6 9 11 12 11 12 11 12 12 9 8 9 8 10 13 12 10 11 13 13 13 14 14 16 18
5 5 5 4 3 3 3 3 3 4 4 7 10 11 4 4 11 14 13 9 6 7 6 8 8 9 11 11 12 12 12 10 7 8 11 10 13 16 13 9 8 10 12 13 17 18 16
5 5 5 5 4 3 3 3 3 3 4 7 11 10 4 5 14 14 10 8 7 8 8 8 9 8 8 11 13 11 10 7 7 8 10 10 14 18 15 12 10 11 11 12 12 14 16
4 4 4 4 4 4 4 3 3 3 4 6 11 12 9 9 10 12 12 10 10 7 8 7 8 8 10 11 10 12 11 8 7 8 6 8 12 15 18 14 12 14 12 11 13 16 16
5 4 4 4 4 4 4 3 3 3 4 8 11 13 10 13 11 11 10 9 11 11 8 7 9 9 11 13 12 12 10 9 8 6 8 10 15 13 13 12 12 12 13 12 13 13 16
5 5 4 4 4 4 4 4 3 3 3 8 12 11 9 9 10 11 10 11 11 10 9 10 11 9 9 12 11 13 11 11 11 9 10 10 14 13 14 12 12 14 12 11 11 11 12
5 5 4 4 4 4 4 4 4 2 4 10 10 9 8 8 10 12 12 10 9 8 8 7 8 9 10 9 7 7 7 7 8 10 11 12 13 14 17 13 13 16 13 12 11 10 11
5 5 4 4 4 4 4 4 4 3 3 7 9 8 10 12 10 11 9 8 9 9 10 8 7 9 7 5 5 6 8 8 8 8 8 11 12 13 16 15 21 13 10 10 11 9 10
5 5 5 5 5 4 4 4 4 3 3 7 9 8 9 12 9 9 9 9 8 7 8 8 7 6 5 7 11 12 13 12 10 9 9 8 11 15 17 18 14 13 11 12 13 13 10
5 5 5 5 5 5 4 4 4 3 3 6 8 8 8 10 11 7 10 9 10 10 9 7 5 5 7 10 12 16 17 15 15 12 9 10 10 13 15 19 21 14 10 9 9 16 9
5 5 5 5 5 5 4 4 4 4 3 4 6 7 7 10 8 7 9 9 7 8 10 8 8 9 8 12 16 15 16 12 16 16 15 14 14 16 16 17 15 11 10 9 17 15 9
5 5 5 5 5 5 5 4 4 4 3 4 7 6 7 10 10 7 6 8 8 8 10 8 9 9 10 12 14 14 14 13 14 13 14 15 16 16 15 17 19 11 11 13 10 8 8
6 6 5 6 6 6 6 5 4 4 3 3 6 5 5 8 8 6 4 4 4 5 7 6 8 8 8 11 13 11 13 12 13 16 10 15 13 14 14 14 10 11 9 7 8 9 9

GFSGBSN_con_lsi_033.txt.gz
Lid_Strength_Index
4 3 4 4 4 4 4 4 4 4 4 4 4 3 3 3 3 4 4 4 4 3 4 4 4 4 6 11 11 8 3 4 6 7 4 8 10 10 12 12 10 10 8 7 6 6 6
4 3 3 4 4 4 4 4 4 4 4 4 4 3 3 3 3 3 3 3 3 3 4 4 4 4 8 13 7 7 7 7 8 8 9 7 10 10 11 12 11 11 10 9 8 8 8
3 3 3 3 4 3 3 3 3 3 3 3 3 3 3 3 3 3 3 3 3 3 3 3 3 5 8 10 6 6 7 8 8 8 9 8 6 10 11 13 11 11 13 11 10 10 10
4 3 3 4 3 4 4 4 4 4 4 4 3 3 3 3 3 3 3 3 3 2 2 3 3 5 10 5 6 7 7 8 7 7 8 7 8 10 10 11 11 13 13 14 11 10 9
4 4 4 4 4 4 4 4 4 4 4 4 4 3 4 3 3 3 3 3 2 2 2 2 5 7 11 4 6 5 6 8 8 8 8 6 9 11 10 12 14 13 14 13 11 9 9
4 4 4 4 4 4 4 4 4 4 4 4 4 4 4 4 4 3 3 3 3 3 3 3 5 10 9 10 7 6 6 7 8 9 10 10 12 13 14 14 16 14 14 12 12 10 9
3 3 3 4 4 4 4 4 4 4 3 3 4 4 4 4 4 4 5 8 10 10 10 11 10 10 9 7 6 7 6 8 8 10 14 13 15 16 14 12 12 13 13 13 11 9 9
4 4 4 4 4 4 4 4 3 4 4 4 4 4 4 3 3 4 7 9 9 9 13 8 8 7 5 5 9 7 6 10 11 14 13 15 16 13 12 12 12 13 14 14 12 10 11
4 4 4 4 4 3 3 3 3 4 4 4 4 4 4 3 4 6 8 7 6 7 12 9 6 5 4 4 6 6 5 8 11 13 14 16 14 11 12 13 14 14 14 14 14 11 11
5 4 4 4 4 3 3 3 3 3 4 4 4 4 3 4 6 7 7 5 5 6 14 9 7 5 4 5 7 3 4 6 9 12 12 14 12 13 14 14 13 16 12 12 12 14 16
5 5 4 4 4 3 3 3 3 4 3 3 3 3 3 4 7 7 5 5 4 7 21 8 7 3 4 6 6 5 3 5 9 9 10 14 14 14 14 13 12 14 12 13 12 14 16
5 5 5 4 4 3 3 3 3 3 3 3 3 3 4 6 7 5 4 5 6 15 20 10 7 8 8 6 6 5 5 4 5 9 9 10 9 10 12 11 12 11 13 13 13 15 19
5 5 5 4 4 4 3 3 3 3 3 3 3 4 5 5 8 5 5 8 15 19 9 11 10 8 9 9 8 7 8 9 12 15 14 10 10 9 9 13 11 13 17 20 20 20 20
5 5 5 5 4 4 3 3 3 3 3 3 4 4 6 5 5 5 7 12 20 12 12 8 9 9 10 9 9 9 9 12 9 10 13 15 16 10 7 10 13 15 16 20 22 20 19
5 5 5 5 5 4 4 3 3 3 3 4 5 9 8 5 3 5 10 17 15 11 9 10 10 12 11 9 10 10 11 12 10 10 14 15 14 8 8 8 10 13 16 14 17 17 19
5 5 5 5 4 4 4 4 3 3 3 4 9 9 8 5 4 7 12 13 11 8 7 8 13 11 14 12 12 12 12 10 10 8 8 11 15 9 8 8 9 11 10 17 18 20 22
4 4 5 4 4 4 4 4 4 3 4 4 9 10 7 5 5 9 16 13 9 6 7 9 11 11 11 12 11 12 12 9 8 9 8 11 13 12 10 11 14 12 13 13 15 17 20
5 5 5 4 4 4 4 4 4 4 4 6 11 13 6 6 11 16 15 10 7 8 6 8 8 10 11 11 12 12 12 10 7 8 12 10 13 16 13 9 8 10 11 13 17 18 17
5 5 5 5 4 4 4 4 4 4 4 6 10 12 7 8 16 15 12 10 8 9 9 9 10 8 9 11 13 11 10 7 7 8 11 11 14 17 15 13 10 12 10 11 13 15 18
5 5 5 4 4 4 5 4 5 5 5 6 10 13 12 12 11 13 13 11 10 6 8 7 9 8 10 11 10 12 11 8 7 8 6 8 13 15 18 15 12 14 12 12 13 17 17
5 5 5 4 4 4 4 4 4 5 5 8 11 13 12 16 13 11 12 11 11 11 8 7 10 9 11 13 12 12 10 10 8 7 9 10 15 13 13 12 12 13 13 12 14 13 16
5 5 5 5 4 4 4 4 4 5 5 9 12 12 11 13 11 10 11 12 10 10 9 10 11 10 10 12 11 13 11 11 11 9 11 10 15 13 14 12 12 14 12 12 12 12 13
5 5 5 5 5 5 4 4 4 4 7 12 10 10 11 12 13 12 12 10 10 8 8 8 8 9 10 9 7 8 7 8 8 10 11 12 13 15 17 12 14 16 13 12 12 10 12
5 4 5 5 5 5 5 4 4 4 6 8 9 9 10 15 13 13 10 10 9 9 10 8 7 9 7 5 6 7 8 9 9 9 8 12 13 13 16 15 21 13 10 9 11 10 9
4 4 4 4 5 5 5 5 4 4 4 8 8 9 10 14 12 12 9 10 9 8 8 8 7 6 6 8 11 13 12 12 11 10 10 10 12 15 17 18 15 13 12 12 13 13 10
5 5 4 5 5 5 5 5 4 4 4 7 8 7 9 10 14 10 11 10 10 9 9 8 6 7 8 11 12 16 17 15 15 13 9 9 10 13 16 19 20 14 10 8 9 16 9
5 5 5 5 5 5 5 6 5 4 4 5 7 7 8 10 10 11 11 11 8 8 10 8 8 9 9 12 16 15 16 12 16 16 15 14 14 16 16 17 15 10 10 9 16 15 9
5 5 6 6 6 6 6 5 5 5 4 5 7 7 8 9 9 9 9 10 8 8 10 8 9 9 11 13 13 15 14 13 14 13 14 15 16 16 15 17 19 10 11 13 10 8 8
6 6 6 6 6 6 6 5 5 5 5 4 7 6 6 8 8 7 7 6 5 6 7 7 9 8 10 11 13 11 13 12 13 16 10 15 13 14 14 14 11 11 11 7 7 8 7